User: anonymous   Login
Location: �clusier
(49.9361°N, 2.7869°E)
Time: 19:28:27
(UTC+00:00)
Language:

NOAA 13 - Orbit

View from above orbital plane
View from above orbital plane
View from above satellite
View from above satellite

Ground track
Ground track

The orbit data is extracted from the following two-line orbital elements,

1 22739U 93050A   22015.90010910  .00000044  00000-0  45431-4 0  9999
2 22739  98.4878   3.4455 0010497  63.3478 296.8770 14.12809395465514
Epoch (UTC): 15 January 2022 21:36:09
Eccentricity: 0.0010497
inclination: 98.4878°
perigee height: 842 km
apogee height: 857 km
right ascension of ascending node: 3.4455°
argument of perigee: 63.3478°
revolutions per day: 14.12809395
mean anomaly at epoch: 296.8770°
orbit number at epoch: 46551

The dashed part of the orbit path shows where the satellite is in the earth's shadow,  

DLR